Weather History for KHSE - April, 2013

Change the Weather History Date:

Monday, April 22, 2013

  Actual Average Record
Temperature  
Mean Temperature 56 °F 61 °F  
Max Temperature 58 °F 68 °F 86 °F (1985)
Min Temperature 53 °F 54 °F 39 °F (1965)
Degree Days  
Heating Degree Days 9 5  
Month to date heating degree days 132 158  
Since 1 July heating degree days 2351 2501  
Cooling Degree Days 0 1  
Month to date cooling degree days 9 13  
Year to date cooling degree days 9 16  
Growing Degree Days 5 (Base 50)    
Moisture  
Dew Point 53 °F    
Average Humidity 82    
Maximum Humidity 93    
Minimum Humidity 71    
Precipitation  
Precipitation 0.28 in 0.12 in 3.18 in (2012)
Month to date precipitation 3.36 2.75  
Year to date precipitation 15.31 16.78  
Snow  
Snow 0.00 in - - ()
Month to date snowfall 0.0  
Since 1 July snowfall 0.0  
Snow Depth 0.00 in    
Sea Level Pressure  
Sea Level Pressure 30.22 in    
Wind  
Wind Speed 14 mph (NE)    
Max Wind Speed 21 mph    
Max Gust Speed 36 mph    
Visibility 6 miles    
Events Rain    
T = Trace of Precipitation, MM = Missing Value Source: NWS Daily Summary

Daily Weather History Graph

Daily Weather History Graph

Search for Another Location

Airport or City:

Trip Planner

Search our weather history database for the weather conditions in past years. The results will help you decide how hot, cold, wet, or windy it might be!

Date:

Astronomy

Apr. 22, 2013 Rise Set
Actual Time 6:21 AM EDT 7:41 PM EDT
Civil Twilight 5:54 AM EDT 8:07 PM EDT
Nautical Twilight 5:22 AM EDT 8:39 PM EDT
Astronomical Twilight 4:49 AM EDT 9:12 PM EDT
Moon 4:33 PM EDT (4/22) 4:06 AM EDT (4/22)
Length of Visible Light 14h 13m
Length of Day
13h 19m
Waxing Gibbous, 87% of the Moon is Illuminated
Apr 22
Waxing Gibbous
Apr 25
Full
May 2
Last Quarter
May 9
New
May 18
First Quarter

Hourly Weather History & Observations

Time (EDT) Temp. Dew Point Humidity Pressure Visibility Wind Dir Wind Speed Gust Speed Precip Events Conditions
12:51 AM 53.1 °F 45.0 °F 74% 30.39 in 10.0 mi NE 15.0 mph 26.5 mph N/A   Overcast
1:51 AM 53.1 °F 46.0 °F 77% 30.37 in 10.0 mi NE 16.1 mph 31.1 mph N/A   Partly Cloudy
2:51 AM 53.1 °F 46.9 °F 80% 30.34 in 10.0 mi NNE 15.0 mph 28.8 mph N/A   Mostly Cloudy
3:51 AM 53.1 °F 46.9 °F 80% 30.33 in 10.0 mi NNE 16.1 mph 31.1 mph N/A   Overcast
4:26 AM 53.6 °F 46.4 °F 77% 30.33 in 10.0 mi NE 16.1 mph 26.5 mph N/A   Overcast
4:41 AM 53.6 °F 46.4 °F 77% 30.32 in 10.0 mi NNE 18.4 mph 33.4 mph N/A   Overcast
4:51 AM 54.0 °F 46.9 °F 77% 30.31 in 10.0 mi NE 17.3 mph 29.9 mph N/A   Overcast
5:51 AM 54.0 °F 48.0 °F 80% 30.31 in 10.0 mi NE 16.1 mph 29.9 mph N/A   Overcast
6:07 AM 53.6 °F 48.2 °F 82% 30.32 in 10.0 mi NE 15.0 mph 31.1 mph N/A   Overcast
6:39 AM 53.6 °F 50.0 °F 88% 30.31 in 6.0 mi NE 16.1 mph 32.2 mph 0.00 in Rain Light Rain
6:51 AM 53.1 °F 50.0 °F 89% 30.30 in 2.5 mi NE 13.8 mph 33.4 mph 0.00 in Rain Light Rain
6:59 AM 53.6 °F 50.0 °F 88% 30.30 in 4.0 mi NE 19.6 mph 33.4 mph 0.01 in Rain Light Rain
7:51 AM 54.0 °F 51.1 °F 90% 30.28 in 5.0 mi NE 18.4 mph 32.2 mph 0.01 in Rain Light Rain
7:59 AM 53.6 °F 51.8 °F 94% 30.28 in 6.0 mi NE 18.4 mph 32.2 mph 0.00 in Rain Light Rain
8:51 AM 55.0 °F 51.1 °F 86% 30.27 in 10.0 mi NE 17.3 mph 28.8 mph 0.00 in   Overcast
8:56 AM 55.4 °F 51.8 °F 88% 30.28 in 8.0 mi NNE 17.3 mph 33.4 mph N/A   Overcast
9:28 AM 55.4 °F 51.8 °F 88% 30.27 in 5.0 mi NNE 15.0 mph 29.9 mph N/A   Overcast
9:51 AM 55.0 °F 52.0 °F 89% 30.26 in 5.0 mi NNE 18.4 mph 35.7 mph N/A   Overcast
10:51 AM 55.9 °F 53.1 °F 90% 30.25 in 5.0 mi NNE 13.8 mph 28.8 mph 0.00 in   Overcast
11:10 AM 55.4 °F 53.6 °F 94% 30.24 in 2.5 mi NNE 16.1 mph 33.4 mph 0.00 in Rain Light Rain
11:18 AM 55.4 °F 53.6 °F 94% 30.25 in 4.0 mi NNE 15.0 mph 29.9 mph 0.00 in Rain Light Rain
11:29 AM 55.4 °F 53.6 °F 94% 30.25 in 2.5 mi NNE 12.7 mph 29.9 mph 0.01 in Rain Light Rain
11:38 AM 55.4 °F 53.6 °F 94% 30.25 in 3.0 mi NNE 13.8 mph 26.5 mph 0.01 in Rain Light Rain
11:47 AM 55.4 °F 53.6 °F 94% 30.25 in 2.5 mi NNE 15.0 mph 26.5 mph 0.01 in Rain Light Rain
11:51 AM 55.9 °F 53.1 °F 90% 30.25 in 4.0 mi NNE 12.7 mph 26.5 mph 0.01 in Rain Light Rain
1:27 PM 57.2 °F 55.4 °F 94% 30.21 in 1.5 mi NNE 12.7 mph 26.5 mph 0.02 in Rain Rain
1:35 PM 57.2 °F 55.4 °F 94% 30.20 in 3.0 mi NNE 12.7 mph 24.2 mph 0.03 in Rain Light Rain
1:51 PM 57.0 °F 55.0 °F 93% 30.19 in 9.0 mi NE 11.5 mph 25.3 mph 0.03 in Rain Light Rain
2:51 PM 57.9 °F 55.0 °F 90% 30.16 in 8.0 mi NNE 12.7 mph 29.9 mph N/A   Overcast
3:51 PM 57.0 °F 55.0 °F 93% 30.14 in 7.0 mi NNE 12.7 mph 28.8 mph N/A   Overcast
4:51 PM 57.9 °F 55.9 °F 93% 30.13 in 2.5 mi NNE 11.5 mph 27.6 mph 0.07 in Rain Light Rain
5:00 PM 57.2 °F 55.4 °F 94% 30.13 in 3.0 mi NNE 10.4 mph 27.6 mph 0.01 in Rain Light Rain
5:11 PM 57.2 °F 55.4 °F 94% 30.12 in 2.5 mi NE 11.5 mph 26.5 mph 0.03 in Rain Rain
5:27 PM 57.2 °F 55.4 °F 94% 30.13 in 3.0 mi NNE 13.8 mph 21.9 mph 0.05 in Rain Light Rain
5:51 PM 57.0 °F 55.0 °F 93% 30.13 in 2.5 mi NNE 15.0 mph 25.3 mph 0.09 in Rain Rain
6:02 PM 57.2 °F 55.4 °F 94% 30.13 in 1.8 mi NNE 10.4 mph 23.0 mph 0.04 in Rain Rain
6:09 PM 57.2 °F 55.4 °F 94% 30.13 in 2.5 mi NNE 11.5 mph 25.3 mph 0.05 in Rain Light Rain
6:19 PM 57.2 °F 55.4 °F 94% 30.13 in 3.0 mi NE 15.0 mph 25.3 mph 0.05 in Rain Light Rain
6:51 PM 57.9 °F 55.9 °F 93% 30.12 in 5.0 mi NE 10.4 mph 25.3 mph 0.06 in   Overcast
7:31 PM 57.2 °F 55.4 °F 94% 30.12 in 5.0 mi NE 12.7 mph 24.2 mph N/A   Overcast
7:51 PM 57.0 °F 55.0 °F 93% 30.13 in 6.0 mi NE 9.2 mph 20.7 mph N/A   Overcast
7:59 PM 57.2 °F 55.4 °F 94% 30.13 in 5.0 mi NNE 10.4 mph 18.4 mph N/A   Overcast
8:51 PM 57.9 °F 55.9 °F 93% 30.14 in 6.0 mi NE 11.5 mph 23.0 mph N/A   Overcast
9:51 PM 57.0 °F 55.0 °F 93% 30.15 in 5.0 mi NE 11.5 mph 21.9 mph N/A   Overcast
10:51 PM 57.0 °F 55.0 °F 93% 30.14 in 4.0 mi NE 13.8 mph 28.8 mph 0.00 in Rain Light Rain
11:51 PM 57.0 °F 55.0 °F 93% 30.12 in 5.0 mi NNE 10.4 mph 26.5 mph 0.00 in   Overcast